This is the latest recevied weather packets stored in our database for station/object N6OIM. If no packets are shown the sender has not sent any weather packets the latest 10 day(s).
| Time | Temp. | Humidity | Pressure | Rain* | Wind** | Luminosity | Snow |
|---|---|---|---|---|---|---|---|
| 1777506203 | 27.22° C | 36% | 1012.7 hPa | 0 mm | - | - | - |
| 1777502902 | 27.22° C | 36% | 1013.3 hPa | 0 mm | - | - | - |
| 1777502302 | 27.22° C | 38% | 1013.6 hPa | 0 mm | - | - | - |
| 1777502012 | 27.22° C | 36% | 1013.6 hPa | 0 mm | - | - | - |
| 1777501701 | 27.22° C | 36% | 1013.7 hPa | 0 mm | - | - | - |
| 1777501410 | 27.22° C | 34% | 1013.8 hPa | 0 mm | - | - | - |
| 1777501103 | 27.22° C | 37% | 1013.9 hPa | 0 mm | - | - | - |
| 1777500810 | 27.22° C | 38% | 1013.9 hPa | 0 mm | - | - | - |
| 1777500499 | 27.22° C | 41% | 1013.9 hPa | 0 mm | - | - | - |
| 1777500210 | 27.22° C | 40% | 1014 hPa | 0 mm | - | - | - |
| 1777499902 | 26.67° C | 40% | 1013.9 hPa | 0 mm | - | - | - |
| 1777499611 | 26.67° C | 39% | 1014 hPa | 0 mm | - | - | - |
| 1777498700 | 26.11° C | 41% | 1014.3 hPa | 0 mm | - | - | - |
| 1777498409 | 26.11° C | 40% | 1014.3 hPa | 0 mm | - | - | - |
| 1777498097 | 26.11° C | 40% | 1014.2 hPa | 0 mm | - | - | - |
| 1777497806 | 25.56° C | 39% | 1014.3 hPa | 0 mm | - | - | - |
| 1777497503 | 25.56° C | 43% | 1014.3 hPa | 0 mm | - | - | - |
| 1777497215 | 25.56° C | 43% | 1014.4 hPa | 0 mm | - | - | - |
| 1777496904 | 25.56° C | 43% | 1014.4 hPa | 0 mm | - | - | - |
| 1777496304 | 25.56° C | 42% | 1014.5 hPa | 0 mm | - | - | - |
| 1777495701 | 25° C | 41% | 1014.7 hPa | 0 mm | - | - | - |
| 1777495409 | 25° C | 42% | 1014.7 hPa | 0 mm | - | - | - |
| 1777495098 | 25° C | 44% | 1014.8 hPa | 0 mm | - | - | - |
| 1777494808 | 25° C | 44% | 1014.7 hPa | 0 mm | - | - | - |
| 1777494499 | 25° C | 43% | 1014.9 hPa | 0 mm | - | - | - |
* Rain latest hour (hover to see other rain measurements)
** Current wind speed in m/s (hover to see current wind gust speed)